Search your local weather  

 
Advertise Here

Hazardous Weather Conditions

No active alerts for CHICAGO, ILLINOIS

Current Conditions: CHICAGO, ILLINOIS

Fair


89.0 F

Last Updated on Jun 18 2021, 5:52 pm CDT
Humidity: 30%
Wind Speed: W 8.1 mph
Barometer 29.80 in
Dewpoint: 54.0 F
Visibility: 10.00 mi
Precip: --
Heat Index: 87 F
Wind Chill: NA
Current conditions at:

Chicago / Wheeling, Pal-Waukee Airport, IL (KPWK)

Lat: 42.12083 Lon: -87.90472

Local Radar Image active severe weather and emergency alerts image image weather storm and storm spotter reports image weather observation monitoring service image
Local
Radar
Active
Alerts
Storm Reports Weather
Monitoring

5 Day Forecast for CHICAGO, ILLINOIS (60601)

Friday

Chance of T-storms

High 86 °F
Friday
Night
Chance of T-storms

Low 70 °F
Saturday

Partly Sunny

High 79 °F
Saturday
Night
Mostly Clear

Low 66 °F
Sunday

Chance of T-storms

High 85 °F
Sunday
Night
T-storms Likely

Low 68 °F
Monday

Chance of T-storms

High 74 °F
Monday
Night
Partly Cloudy

Low 58 °F
Tuesday

Mostly Sunny

High 68 °F

Sign-up For Email & Text Message Weather Alert Notification Services


Advertise Here

Observation History for CHICAGO, ILLINOIS


Time Wind
(mph)
Vis
(mi)
Weather Precip (in) Temperature (F) Relative
Humidity
Wind
Chill
(F)
Heat
Index
(F)
Pressure
Air Dwpt altimeter
(in)
sea level
(mb)
5:52 pm CDT W 8.1 10.00 Fair -- 89.0 54.0 30% NA 87 29.80 1008.4
3:52 pm CDT 5.8 10.00 Fair -- 90.0 60.1 37% NA 90 29.79 1008.0
2:52 pm CDT 10.00 Fair -- 89.0 62.1 41% NA 89 29.79 1008.0
1:52 pm CDT NW 10.4 10.00 Fair -- 87.0 69.1 55% NA 91 29.78 1007.8
12:52 pm CDT NW 8.1 10.00 A Few Clouds -- 84.0 69.1 61% NA 88 29.81 1008.6
11:52 am CDT NW 9.2 10.00 Mostly Cloudy -- 84.0 71.1 65% NA 89 29.78 1007.9
10:52 am CDT W 10.4 10.00 A Few Clouds -- 83.0 70.0 65% NA 87 29.78 1007.6
9:52 am CDT SW 8.1 10.00 Fair -- 78.0 68.0 71% NA NA 29.78 1007.7
8:52 am CDT W 5.8 10.00 Fair -- 74.0 66.9 79% NA NA 29.78 1007.9
7:52 am CDT S 6.9 10.00 Fair Trace 69.0 66.0 90% NA NA 29.76 1007.2
6:52 am CDT S 18.4 G 23.0 10.00 Thunderstorm in Vicinity Light Rain 00.01 68.0 66.0 93% NA NA 29.78 1007.7
4:52 am CDT NE 15.0 G 32.2 2.00 Thunderstorm Heavy Rain Fog/Mist 00.23 67.0 66.0 97% NA NA 29.88 1011.4
3:52 am CDT S 9.2 G 18.4 10.00 Partly Cloudy Trace 81.0 63.0 54% NA 82 29.77 1007.5
2:52 am CDT S 8.1 G 21.9 10.00 Fair -- 81.0 61.0 51% NA 82 29.77 1007.5
1:52 am CDT S 10.4 G 20.7 10.00 Fair Trace 82.0 60.1 47% NA 82 29.79 1008.0
12:52 am CDT S 13.8 G 25.3 10.00 Fair Trace 82.0 57.9 44% NA 82 29.81 1008.6
11:52 pm CDT S 13.8 10.00 Light Rain Trace 83.0 57.9 43% NA 83 29.79 1008.3
10:52 pm CDT S 16.1 10.00 A Few Clouds -- 84.0 57.0 40% NA 83 29.79 1008.1
8:52 pm CDT S 11.5 10.00 A Few Clouds -- 85.0 55.0 36% NA 84 29.90 1011.8
7:52 pm CDT W 5.8 10.00 A Few Clouds -- 87.0 54.0 32% NA 85 29.93 1013.1
6:52 pm CDT SW 12.7 G 20.7 10.00 Mostly Cloudy -- 88.0 53.1 30% NA 86 29.89 1011.6

Regional Weather Observation

Chicago, Chicago-OHare International Airport, IL (KORD)

Mostly Cloudy
88.0 F

Chicago/Waukegan Regional Airport, IL (KUGN)

Fair
89.0 F

Chicago, Chicago Midway Airport, IL (KMDW)

Mostly Cloudy
90.0 F

Schaumburg Regional Airport, IL (K06C)

Fair
87.0 F

Kenosha, Kenosha Regional Airport, WI (KENW)

Fair
88.0 F

Chicago / West Chicago, Dupage Airport, IL (KDPA)

Fair
89.0 F
Advertise Here

Advertise Here